Seward, AK

6:03 PM AKST on January 20, 2018 (GMT -0900)
Seward

Weather History for PAWD - July, 2014

Change the Weather History Date:

Saturday, July 12, 2014

  Actual Average Record
Temperature  
Mean Temperature 55 °F -  
Max Temperature 59 °F 61 °F 82 °F (1993)
Min Temperature 51 °F 49 °F 43 °F (2006)
Degree Days  
Heating Degree Days 10    
Growing Degree Days 5 (Base 50)    
Moisture  
Dew Point 49 °F    
Average Humidity 82    
Maximum Humidity 93    
Minimum Humidity 69    
Precipitation  
Precipitation 0.01 in - - ()
Sea Level Pressure  
Sea Level Pressure 29.94 in    
Wind  
Wind Speed 6 mph (SSE)    
Max Wind Speed 10 mph    
Max Gust Speed -    
Visibility 10 miles    
Events Rain    
Averages and records for this station are not official NWS values.
T = Trace of Precipitation, MM = Missing Value Source: NWS Daily Summary

Daily Weather History Graph

Daily Weather History Graph

Search for Another Location

Airport or City:

Trip Planner

Search our weather history database for the weather conditions in past years. The results will help you decide how hot, cold, wet, or windy it might be!

Date:

Astronomy

Jul. 12, 2014 Rise Set
Actual Time 4:54 AM AKDT 11:10 PM AKDT
Civil Twilight 3:31 AM AKDT 12:32 AM AKDT
Nautical Twilight Sun does not rise Sun does not rise
Astronomical Twilight Sun does not rise Sun does not rise
Moon 10:38 PM AKDT (7/12) 5:58 AM AKDT (7/12)
Length of Visible Light 21h 01m
Length of Day
18h 15m
Full, 100% of the Moon is Illuminated
Jul 12
Full
Jul 18
Last Quarter
Jul 26
New
Aug 3
First Quarter
Aug 10
Full

Hourly Weather History & Observations

Time (AKDT) Temp. Dew Point Humidity Pressure Visibility Wind Dir Wind Speed Gust Speed Precip Events Conditions
12:28 AM 52.0 °F 50.0 °F 93% 29.82 in 9.0 mi SSE 8.1 mph - 0.00 in   Overcast
12:53 AM 53.1 °F 50.0 °F 89% 29.83 in 6.0 mi SSE 3.5 mph - 0.01 in Rain Light Rain
1:53 AM 51.1 °F 48.9 °F 92% 29.84 in 10.0 mi SE 9.2 mph - 0.00 in   Scattered Clouds
2:53 AM 53.1 °F 48.0 °F 83% 29.85 in 10.0 mi South 8.1 mph - N/A   Mostly Cloudy
3:53 AM 53.1 °F 48.0 °F 83% 29.86 in 10.0 mi South 5.8 mph - N/A   Overcast
4:53 AM 53.1 °F 46.9 °F 80% 29.87 in 10.0 mi Variable 4.6 mph - N/A   Partly Cloudy
5:53 AM 51.1 °F 48.0 °F 89% 29.88 in 10.0 mi ESE 3.5 mph - N/A   Overcast
6:53 AM 52.0 °F 48.0 °F 86% 29.91 in 10.0 mi Calm Calm - N/A   Overcast
7:53 AM 53.1 °F 48.9 °F 86% 29.92 in 10.0 mi Calm Calm - N/A   Overcast
8:53 AM 54.0 °F 50.0 °F 86% 29.93 in 10.0 mi Calm Calm - N/A   Overcast
9:53 AM 55.0 °F 50.0 °F 83% 29.94 in 10.0 mi ESE 4.6 mph - N/A   Mostly Cloudy
10:53 AM 55.9 °F 48.9 °F 77% 29.94 in 10.0 mi SE 8.1 mph - N/A   Overcast
11:53 AM 55.9 °F 48.9 °F 77% 29.95 in 10.0 mi SSE 6.9 mph - N/A   Overcast
12:53 PM 57.0 °F 48.0 °F 72% 29.96 in 10.0 mi SSE 10.4 mph - N/A   Overcast
1:53 PM 57.9 °F 48.9 °F 72% 29.96 in 10.0 mi SSE 9.2 mph - N/A   Mostly Cloudy
2:53 PM 57.0 °F 50.0 °F 77% 29.97 in 10.0 mi SSE 9.2 mph - N/A   Overcast
3:53 PM 57.0 °F 48.9 °F 74% 29.98 in 10.0 mi SSE 9.2 mph - N/A   Overcast
4:53 PM 59.0 °F 48.9 °F 69% 29.98 in 10.0 mi South 6.9 mph - 0.00 in   Mostly Cloudy
5:53 PM 57.9 °F 48.9 °F 72% 29.98 in 10.0 mi SSE 9.2 mph - N/A   Overcast
6:53 PM 57.0 °F 50.0 °F 77% 29.99 in 10.0 mi SSE 8.1 mph - 0.00 in Rain Light Rain
7:53 PM 55.9 °F 50.0 °F 80% 29.99 in 10.0 mi SE 8.1 mph - 0.00 in   Overcast
8:53 PM 54.0 °F 48.9 °F 83% 30.00 in 10.0 mi SE 6.9 mph - 0.00 in   Overcast
9:53 PM 54.0 °F 48.9 °F 83% 30.02 in 10.0 mi SE 9.2 mph - N/A   Overcast
10:53 PM 52.0 °F 48.9 °F 89% 30.03 in 10.0 mi South 5.8 mph - N/A   Overcast
11:53 PM 52.0 °F 48.9 °F 89% 30.05 in 10.0 mi Calm Calm - N/A   Partly Cloudy